Voltar ao catálogo

COSMOS 886 DEB

AtivoLEO
NORAD 9960·DEBRIS·🇷🇺 Russia

Lançado Dec 27, 1976 de Baikonur Cosmodrome

Loading…

Próximas Passagens (próximas 24 horas)

TLE

AtualizadoSource: Space-Track

Época: Sep 14, 2026, 02:58 UTC

1 09960U 76126BA  26257.12395252  .00000167  00000-0  17011-3 0  9994
2 09960  65.8672 158.7970 0856207 288.2190  62.7531 12.89834910289700

Acompanhe COSMOS 886 DEB em tempo real com AllMySat

Download on the App Store